[[{"header":{"parameterUnit":"m.s-1","parameterCategory":1,"la1":30.2992,"la2":30.254,"lo1":-89.0895,"lo2":-89.0443,"dy":0.0025,"dx":0.0025,"nx":19,"ny":19,"refTime":"2026-03-26T09:00:00:Z","depth":0,"parameterNumber":2,"parameterNumberName":"U-component_of_WINDS"},"data":[0,0,0,-1.8025,-1.8026,-1.805,-1.8051,-1.8097,-1.8098,0,0,0,0,0,0,0,0,0,0,0,-1.8025,-1.8026,-1.8025,-1.8026,-1.805,-1.8051,-1.8097,-1.8098,0,0,0,0,0,0,0,0,0,0,0,-1.8025,-1.8026,-1.8026,-1.8026,-1.805,-1.8051,-1.8097,-1.8073,0,0,0,0,0,0,0,0,0,0,-1.8047,-1.8054,-1.8026,-1.8026,-1.8026,-1.805,-1.8051,-1.8072,-1.8075,-1.8092,0,-1.8108,0,-1.8103,-1.8101,-1.8102,0,0,0,-1.8021,-1.8051,-1.8051,-1.8027,-1.8027,-1.805,-1.8038,-1.8073,-1.8077,-1.8096,-1.8108,-1.811,-1.8104,-1.8102,-1.8102,-1.8216,-1.8217,0,0,-1.8019,-1.8034,-1.8049,-1.8054,-1.8049,-1.8037,-1.8039,-1.8075,-1.809,-1.8108,-1.811,-1.8105,-1.8102,-1.8103,-1.8216,-1.8216,0,0,0,-1.8019,-1.8033,-1.8032,-1.8052,-1.8056,-1.8038,-1.804,-1.8088,-1.8087,-1.8111,-1.8106,-1.8103,-1.8103,-1.8215,-1.8216,-1.8267,0,0,0,-1.8018,-1.8033,-1.8032,-1.8041,-1.8055,-1.8072,-1.8053,-1.8084,-1.8088,-1.8105,-1.8103,-1.8104,-1.8214,-1.8215,-1.8264,-1.8288,0,0,0,-1.8021,-1.8033,-1.8039,-1.8042,-1.8053,-1.8071,-1.8071,-1.8085,-1.8085,-1.8102,-1.8104,-1.8213,-1.8215,-1.8261,-1.8284,-1.8322,0,0,0,-1.8029,-1.8085,-1.804,-1.8101,-1.8052,-1.8103,-1.8071,-1.8108,-1.8129,-1.8103,-1.8214,-1.8216,-1.826,-1.8281,-1.8319,-1.8356,-1.8373,0,0,-1.8107,-1.8095,-1.813,-1.809,-1.8152,-1.8098,-1.8168,-1.8174,-1.8163,-1.82,-1.8202,-1.8265,-1.8283,-1.8321,-1.8467,-1.848,0,0,0,-1.8159,-1.8184,-1.8198,-1.8217,-1.8223,-1.8231,-1.8224,-1.8227,-1.8257,-1.8184,-1.829,-1.83,-1.8322,-1.8339,-1.835,-1.8368,-1.8225,-1.8224,-1.8224,-1.8289,-1.8272,-1.8329,-1.8316,-1.8336,-1.833,-1.8345,-1.8348,-1.8325,-1.8351,-1.8361,-1.8451,-1.8471,-1.8479,-1.8498,-1.8381,-1.8381,-1.8381,-1.8381,-1.8401,-1.8433,-1.8403,-1.8447,-1.843,-1.8467,-1.8465,-1.8448,-1.8481,-1.8441,-1.846,-1.8416,-1.8495,-1.851,-1.8385,-1.8384,-1.8384,-1.8383,-1.8383,-1.8482,-1.8494,-1.8497,-1.8526,-1.8551,-1.8537,-1.857,-1.8554,-1.854,-1.8558,-1.8567,-1.8566,-1.8562,-1.8564,-1.8564,-1.8565,-1.8565,-1.8565,-1.8565,-1.8564,-1.8565,-1.8594,-1.8608,-1.8619,-1.8633,-1.8631,-1.8643,-1.8652,-1.8637,-1.8637,-1.8612,-1.8506,-1.8479,-1.857,-1.8569,-1.8569,-1.8568,-1.8568,-1.8679,-1.8651,-1.8696,-1.8708,-1.8723,-1.875,-1.873,-1.8756,-1.8764,-1.8782,-1.8754,-1.8679,-1.8664,-1.8655,-1.8632,-1.8758,-1.8758,-1.8758,-1.8758,-1.8746,-1.8738,-1.8781,-1.8802,-1.8821,-1.8809,-1.8862,-1.8862,-1.8858,-1.8862,-1.8843,-1.8812,-1.8803,-1.8794,-1.8782,-1.876,-1.8915,-1.8915,-1.8915,-1.8816,-1.8809,-1.8856,-1.8851,-1.8863,-1.8874,-1.8924,-1.895,-1.894,-1.8921,-1.8865,-1.8859,-1.8809,-1.8794,-1.877,-1.8751,-1.8711,0,0]},{"header":{"parameterUnit":"m.s-1","parameterCategory":1,"la1":30.2992,"la2":30.254,"lo1":-89.0895,"lo2":-89.0443,"dy":0.0025,"dx":0.0025,"nx":19,"ny":19,"refTime":"2026-03-26T09:00:00:Z","depth":0,"parameterNumber":3,"parameterNumberName":"V-component_of_WINDS"},"data":[0,0,0,3.0852,3.0852,3.0862,3.0862,3.0851,3.0851,0,0,0,0,0,0,0,0,0,0,0,3.0838,3.0837,3.0852,3.0852,3.0862,3.0862,3.0851,3.0851,0,0,0,0,0,0,0,0,0,0,0,3.0838,3.0837,3.0837,3.0852,3.0862,3.0862,3.0851,3.0852,0,0,0,0,0,0,0,0,0,0,3.0846,3.0822,3.0837,3.0837,3.0852,3.0862,3.0862,3.0852,3.0851,3.0838,0,3.0825,0,3.0838,3.0849,3.0849,0,0,0,3.086,3.0822,3.0836,3.0837,3.0852,3.0862,3.086,3.0852,3.0851,3.0837,3.0825,3.0825,3.0838,3.0849,3.0849,3.075,3.0749,0,0,3.0859,3.0832,3.0836,3.0835,3.0835,3.0859,3.086,3.0852,3.0835,3.0825,3.0825,3.0837,3.0849,3.0848,3.0751,3.075,0,0,0,3.0852,3.0831,3.0846,3.0835,3.0838,3.0859,3.086,3.0836,3.0843,3.0825,3.0837,3.0848,3.0848,3.0752,3.0751,3.0685,0,0,0,3.0853,3.0828,3.0845,3.0829,3.0838,3.0838,3.0843,3.0843,3.0844,3.0837,3.0848,3.0848,3.0753,3.0751,3.0689,3.0657,0,0,0,3.0841,3.0827,3.0824,3.0827,3.0831,3.0838,3.0845,3.0844,3.085,3.0849,3.0848,3.0754,3.0752,3.0692,3.0663,3.0624,0,0,0,3.082,3.0763,3.0823,3.0765,3.0831,3.0799,3.0846,3.0823,3.0813,3.0848,3.0753,3.0751,3.0693,3.0666,3.0627,3.0585,3.0566,0,0,3.0733,3.0752,3.072,3.0774,3.0725,3.0799,3.074,3.0756,3.0778,3.0758,3.0756,3.0687,3.0663,3.0624,3.0467,3.0452,0,0,0,3.0684,3.066,3.0653,3.0645,3.0658,3.0666,3.0694,3.07,3.0685,3.0763,3.0664,3.065,3.0629,3.061,3.0596,3.0579,3.0741,3.0742,3.0742,3.0521,3.0557,3.0506,3.0543,3.0535,3.0566,3.0561,3.0574,3.061,3.0586,3.058,3.0481,3.0458,3.0448,3.0429,3.0562,3.0561,3.0561,3.0561,3.0397,3.037,3.0423,3.0393,3.043,3.0404,3.0432,3.0459,3.0439,3.0488,3.047,3.0519,3.0429,3.0415,3.0556,3.0557,3.0558,3.0558,3.0558,3.0294,3.0287,3.0298,3.0291,3.0281,3.032,3.03,3.0334,3.0366,3.0349,3.0346,3.0347,3.0351,3.0345,3.0345,3.0345,3.0344,3.0344,3.0344,3.0182,3.0196,3.0177,3.0188,3.0188,3.0192,3.0224,3.0224,3.0233,3.0259,3.0259,3.0297,3.0415,3.0443,3.0339,3.034,3.034,3.0341,3.0341,3.0041,3.0079,3.0048,3.0049,3.0065,3.0053,3.0099,3.0096,3.0101,3.009,3.0133,3.0215,3.0235,3.0246,3.027,3.0126,3.0126,3.0126,3.0126,2.9953,2.9968,2.9945,2.9944,2.9946,2.9985,2.9947,2.9972,3.0003,3.0008,3.0034,3.0069,3.0078,3.0093,3.0107,3.0129,2.9954,2.9954,2.9953,2.9868,2.9886,2.9848,2.9882,2.9898,2.991,2.9876,2.987,2.9913,2.9947,3.0012,3.002,3.0076,3.0093,3.0126,3.0148,3.019,0,0]}]]